Regional Weather Roundup
Issued by NWS

Home | Current Version | Previous Version | Graphics & Text | Print | Product List | Glossary Off
Versions: 1 2 3 4 5 6 7 8 9 10 11 12 13 14 15 16 17 18 19 20 21 22 23 24 25 26 27 28 29 30 31 32 33 34 35 36 37 38 39 40 41 42 43 44 45 46 47 48 49 50

000
ASUS43 KDMX 270107
RWRIA

WEATHER ROUNDUP FOR IOWA
NATIONAL WEATHER SERVICE DES MOINES IA
700 PM CST MON JAN 26 2015

NOTE: "FAIR" INDICATES FEW OR NO CLOUDS BELOW 12,000 FEET WITH NO
SIGNIFICANT WEATHER AND/OR OBSTRUCTIONS TO VISIBILITY.

* - THESE STATIONS ARE NOT NWS STATIONS...THUS NOT UNDER NWS
QUALITY CONTROL.  THEY ALSO DO NOT REPORT WEATHER SUCH
AS PRECIPITATION OR FOG.

IAZ001>003-012>014-020>022-031>034-043>046-270200-
   NORTHWEST IOWA

CITY           SKY/WX    TMP DP  RH WIND       PRES   REMARKS
CARROLL *      CLEAR     41  36  81 NW10      29.94R
CHEROKEE *     CLEAR     39  36  87 NW9       29.97R WCI  33
DENISON *      CLEAR     43  37  81 NW13      29.95R
LE MARS *      CLEAR     41  36  81 NW10      29.98R
ORANGE CITY *  CLEAR     37  34  87 NW7       29.97R WCI  32
SHELDON *      CLEAR     37  36  93 NW9       29.95R WCI  31
SIOUX CITY     CLEAR     44  34  67 W9        29.98S
SPENCER        CLEAR     35  31  85 NW10      29.95R WCI  27
STORM LAKE *   CLEAR     39  34  81 NW12      29.95R WCI  32
$$

IAZ055>058-069>071-079>083-090>094-270200-
   SOUTHWEST IOWA

CITY           SKY/WX    TMP DP  RH WIND       PRES   REMARKS
ATLANTIC *     CLEAR     43  36  75 NW10      29.96R
AUDUBON *      CLEAR     43  36  75 W8G16     29.96R
CLARINDA *     CLEAR     46  34  61 NW10      29.99R
COUNCIL BLFS * CLEAR     46  36  66 NW10      29.98R
CRESTON *      CLEAR     41  36  81 NW10      29.95R
HARLAN  *      CLEAR     39  37  93 NW8       30.00S WCI  34
LAMONI         CLEAR     42  34  73 NW13      29.92R
RED OAK *      CLEAR     45  34  65 NW8       29.98R
SHENANDOAH *   CLEAR     39  30  70 NW7       30.00R WCI  34
$$

IAZ047>049-059>061-072>074-084-270200-
   CENTRAL IOWA

CITY           SKY/WX    TMP DP  RH WIND       PRES   REMARKS
AMES           CLOUDY    44  35  70 NW15G23   29.91R
ANKENY *       CLOUDY    45  37  76 NW14      29.92R
CHARITON *     CLEAR     45  36  70 NW16      29.91R
DES MOINES     MOCLDY    46  36  68 N14       29.92R
GRINNELL*      PTCLDY    37  36  93 NW7       29.89R WCI  32
KNOXVILLE *    CLOUDY    46  36  66 NW17G24   29.89R
MARSHALLTOWN   MOCLDY    37  34  89 NW13      29.88R WCI  29
PELLA *        PTCLDY    43  37  81 NW12      29.91R
PERRY *          N/A     41  36  81 NW8       29.93R
$$

IAZ004>006-015-016-023>025-035-036-270200-
   NORTH CENTRAL IOWA

CITY           SKY/WX    TMP DP  RH WIND       PRES   REMARKS
ALGONA *       MOCLDY    39  36  87 NW12      29.92R WCI  32
CLARION *      CLOUDY    39  37  93 NW12      29.91R WCI  32
ESTHERVILLE    CLOUDY    37  34  89 NW10      29.92R WCI  30
FORT DODGE *   CLOUDY    39  34  81 NW8       29.93R WCI  34
MASON CITY     PTCLDY    37  32  82 NW16      29.89R WCI  28
FOREST CITY *  MOCLDY    37  32  81 NW16      29.89R WCI  28
IOWA FALLS *     N/A     37  32  81 NW13      29.90R WCI  29
$$

IAZ007>011-017>019-026>030-037>042-050>054-066-270200-
   NORTHEAST IOWA

CITY           SKY/WX    TMP DP  RH WIND       PRES   REMARKS
CEDAR RAPIDS   CLOUDY    37  35  92 NW8       29.85R WCI  31
CHARLES CITY * CLOUDY    39  37  93 NW13      29.86S WCI  32
CLINTON *      MOCLDY    27  25  93 E5        29.89R WCI  21
DECORAH *      CLOUDY    37  34  87 CALM      29.82R
DUBUQUE        CLOUDY    26  25  96 S5        29.84R FOG     WCI  20
MONTICELLO *   CLOUDY    34  34 100 CALM      29.85R
OELWEIN *      CLOUDY    37  36  93 NW8       29.86R WCI  31
WATERLOO       CLOUDY    39  35  86 NW7       29.87R WCI  34
$$

IAZ064-065-067-068-078-270200-
   EAST CENTRAL IOWA

CITY           SKY/WX    TMP DP  RH WIND       PRES   REMARKS
DAVENPORT      CLOUDY    32  29  88 NE3       29.86R
IOWA CITY      CLOUDY    39  35  86 W7        29.88R WCI  34
MT. PLEASANT * CLOUDY    36  36 100 CALM      29.88R
MUSCATINE *    CLOUDY    34  32  93 CALM      29.87R
QUAD CITIES    CLOUDY    32  30  92 CALM      29.86R
$$

IAZ062-063-075>077-085>089-095>099-270200-
   SOUTHEAST IOWA

CITY           SKY/WX    TMP DP  RH WIND       PRES   REMARKS
BURLINGTON     CLOUDY    34  33  96 SW6       29.86R WCI  29
FAIRFIELD *    CLOUDY    43  37  81 NW10      29.88R
FORT MADISON * CLOUDY    37  36  93 CALM      29.88R
KEOKUK *       CLOUDY    39  36  87 CALM      29.88R
OSKALOOSA *    CLOUDY    41  37  87 N8        29.89R
CENTERVILLE *  CLEAR     37  34  87 W8        29.91R WCI  31
OTTUMWA        CLOUDY    41  37  86 NW7       29.88R
WASHINGTON *   CLOUDY    43  41  93 NW12      29.87R
$$

ABBREVIATIONS USED IN REMARKS
   TC - TEMPERATURES IN CELSIUS
  WCI - WIND CHILL INDEX
   HX - HEAT INDEX
  VSB - VISIBILITY
$$




USA.gov is the U.S. government's official web portal to all federal, state and local government web resources and services.